{"data":{"norad_id":55169,"intl_designator":"2023-004AF","name":"ONEWEB-0628","alt_names":[],"object_type":"PAYLOAD","status":"ACTIVE","operator":null,"country":"UK","launch_date":"2023-01-10","launch_site_code":"AFETR","launch_vehicle":null,"mission":null,"orbit_class":"UNKNOWN","rcs_meters":null,"size_class":null,"mass_kg":null,"dimensions":null,"purposes":["comms"],"wikipedia_slug":null,"has_3d_model":false,"image_url":null,"decayed_at":null,"tle_current":{"epoch":"2026-05-25T01:50:06.290880Z","epoch_age_seconds":64610,"freshness":"FRESH","line1":"1 55169U 23004AF  26145.07646170 -.00000309  00000+0 -89523-3 0  9997","line2":"2 55169  87.8959 355.2489 0002463  91.3779 268.7632 13.12443539165002","mean_motion":13.12443539,"eccentricity":0.0002463,"inclination_deg":87.8959,"raan_deg":355.2489,"arg_perigee_deg":91.3779,"mean_anomaly_deg":268.7632,"bstar":-0.00089523,"rev_number":16500,"period_min":109.71900559602,"perigee_km":1211.8513377978,"apogee_km":1215.5910871533,"semimajor_km":7591.8582124756,"source":"CELESTRAK","updated_at":"2026-05-25T13:38:22.645810Z"}}}